Time,TemperatureF,DewpointF,PressureIn,WindDirection,WindDirectionDegrees,WindSpeedMPH,WindSpeedGustMPH,Humidity,HourlyPrecipIn,Conditions,Clouds,dailyrainin,SolarRadiationWatts/m^2,SoftwareType,DateUTC
2013-07-10 00:01:00,73.0,51.0,-100.00,West,266,0.0,0.0,46,0.00,,,0.00,0.000000,,2013-07-10 07:01:00,
2013-07-10 00:11:00,73.0,51.0,-100.00,West,266,0.0,0.0,46,0.00,,,0.00,0.000000,,2013-07-10 07:11:00,
2013-07-10 00:43:00,73.0,51.0,-100.00,NE,41,0.0,0.0,46,0.00,,,0.00,0.000000,,2013-07-10 07:43:00,
2013-07-10 00:53:00,73.0,51.0,-100.00,NE,41,0.0,0.0,46,0.00,,,0.00,0.000000,,2013-07-10 07:53:00,
2013-07-10 01:01:00,73.0,51.0,-100.00,NE,41,0.0,0.0,46,0.00,,,0.00,0.000000,,2013-07-10 08:01:00,
2013-07-10 01:11:00,73.0,51.0,-100.00,NE,41,0.0,0.0,46,0.00,,,0.00,0.000000,,2013-07-10 08:11:00,
2013-07-10 01:42:00,74.0,49.0,-100.00,NW,313,0.0,0.0,42,0.00,,,0.00,0.000000,,2013-07-10 08:42:00,
2013-07-10 01:53:00,74.0,49.0,-100.00,NW,313,0.0,0.0,42,0.00,,,0.00,0.000000,,2013-07-10 08:53:00,
2013-07-10 02:02:00,74.0,49.0,-100.00,NW,313,0.0,0.0,42,0.00,,,0.00,0.000000,,2013-07-10 09:02:00,
2013-07-10 02:12:00,74.0,49.0,-100.00,NW,313,0.0,0.0,42,0.00,,,0.00,0.000000,,2013-07-10 09:12:00,
2013-07-10 02:43:00,72.0,51.0,-100.00,West,259,2.0,5.0,47,0.00,,,0.00,0.000000,,2013-07-10 09:43:00,
2013-07-10 02:53:00,72.0,51.0,-100.00,West,259,2.0,5.0,47,0.00,,,0.00,0.000000,,2013-07-10 09:53:00,
2013-07-10 03:01:00,72.0,51.0,-100.00,West,259,2.0,5.0,47,0.00,,,0.00,0.000000,,2013-07-10 10:01:00,
2013-07-10 03:13:00,72.0,51.0,-100.00,West,259,2.0,5.0,47,0.00,,,0.00,0.000000,,2013-07-10 10:13:00,
2013-07-10 03:51:00,-999.0,-99.9,-100.00,SSW,200,0.0,4.0,-999,-99.99,,,-99.99,0.000000,,2013-07-10 10:51:00,
2013-07-10 04:00:00,-999.0,-99.9,-100.00,SSW,200,0.0,4.0,-999,-99.99,,,-99.99,0.000000,,2013-07-10 11:00:00,
2013-07-10 04:11:00,72.0,51.0,-100.00,SSW,200,0.0,4.0,47,0.00,,,0.00,0.000000,,2013-07-10 11:11:00,
2013-07-10 07:43:00,72.0,48.0,-100.00,NE,56,0.0,5.0,43,-99.99,,,0.00,62.000000,,2013-07-10 14:43:00,
2013-07-10 07:53:00,72.0,48.0,-100.00,NE,56,0.0,5.0,43,-99.99,,,0.00,62.000000,,2013-07-10 14:53:00,
2013-07-10 08:01:00,72.0,48.0,-100.00,NE,56,0.0,5.0,43,-99.99,,,0.00,62.000000,,2013-07-10 15:01:00,
2013-07-10 08:11:00,72.0,48.0,-100.00,NE,56,0.0,5.0,43,-99.99,,,0.00,62.000000,,2013-07-10 15:11:00,
2013-07-10 08:43:00,76.0,48.0,-100.00,SSE,153,1.0,5.0,37,0.00,,,0.00,172.000000,,2013-07-10 15:43:00,
2013-07-10 08:52:00,76.0,48.0,-100.00,SSE,153,1.0,5.0,37,0.00,,,0.00,172.000000,,2013-07-10 15:52:00,
2013-07-10 09:01:00,76.0,48.0,-100.00,SSE,153,1.0,5.0,37,0.00,,,0.00,172.000000,,2013-07-10 16:01:00,
2013-07-10 09:11:00,76.0,48.0,-100.00,SSE,153,1.0,5.0,37,0.00,,,0.00,172.000000,,2013-07-10 16:11:00,
2013-07-10 09:44:00,79.0,50.0,-100.00,SSE,151,0.0,7.0,36,0.00,,,0.00,213.000000,,2013-07-10 16:44:00,
2013-07-10 09:53:00,79.0,50.0,-100.00,SSE,151,0.0,7.0,36,0.00,,,0.00,213.000000,,2013-07-10 16:53:00,
2013-07-10 10:01:00,79.0,50.0,-100.00,SSE,151,0.0,7.0,36,0.00,,,0.00,213.000000,,2013-07-10 17:01:00,
2013-07-10 10:11:00,79.0,50.0,-100.00,SSE,151,0.0,7.0,36,0.00,,,0.00,213.000000,,2013-07-10 17:11:00,
2013-07-10 11:11:00,85.0,49.0,-100.00,SSE,166,1.0,7.0,29,0.00,,,0.00,414.000000,,2013-07-10 18:11:00,
2013-07-10 12:42:00,83.0,52.0,-100.00,West,277,5.0,10.0,34,-99.99,,,0.00,477.000000,,2013-07-10 19:42:00,
2013-07-10 12:53:00,83.0,52.0,-100.00,West,277,5.0,10.0,34,-99.99,,,0.00,477.000000,,2013-07-10 19:53:00,
2013-07-10 13:01:00,83.0,52.0,-100.00,West,277,5.0,10.0,34,-99.99,,,0.00,477.000000,,2013-07-10 20:01:00,
2013-07-10 13:11:00,83.0,52.0,-100.00,West,277,5.0,10.0,34,-99.99,,,0.00,477.000000,,2013-07-10 20:11:00,
2013-07-10 13:43:00,84.0,53.0,-100.00,South,184,5.0,9.0,34,0.00,,,0.00,495.000000,,2013-07-10 20:43:00,
2013-07-10 13:52:00,84.0,53.0,-100.00,South,184,5.0,9.0,34,0.00,,,0.00,495.000000,,2013-07-10 20:52:00,
2013-07-10 14:01:00,84.0,53.0,-100.00,South,184,5.0,9.0,34,0.00,,,0.00,495.000000,,2013-07-10 21:01:00,
2013-07-10 14:11:00,84.0,53.0,-100.00,South,184,5.0,9.0,34,0.00,,,0.00,495.000000,,2013-07-10 21:11:00,
2013-07-10 14:42:00,81.0,53.0,-100.00,WNW,285,4.0,10.0,38,0.00,,,0.00,451.000000,,2013-07-10 21:42:00,
2013-07-10 14:52:00,81.0,53.0,-100.00,WNW,285,4.0,10.0,38,0.00,,,0.00,451.000000,,2013-07-10 21:52:00,
2013-07-10 15:01:00,81.0,53.0,-100.00,WNW,285,4.0,10.0,38,0.00,,,0.00,451.000000,,2013-07-10 22:01:00,
2013-07-10 15:11:00,81.0,53.0,-100.00,WNW,285,4.0,10.0,38,0.00,,,0.00,451.000000,,2013-07-10 22:11:00,
2013-07-10 15:43:00,79.0,55.0,-100.00,WSW,257,6.0,11.0,43,0.00,,,0.00,277.000000,,2013-07-10 22:43:00,
2013-07-10 15:53:00,79.0,55.0,-100.00,WSW,257,6.0,11.0,43,0.00,,,0.00,277.000000,,2013-07-10 22:53:00,
2013-07-10 16:01:00,79.0,55.0,-100.00,WSW,257,6.0,11.0,43,0.00,,,0.00,277.000000,,2013-07-10 23:01:00,
2013-07-10 16:11:00,79.0,55.0,-100.00,WSW,257,6.0,11.0,43,0.00,,,0.00,277.000000,,2013-07-10 23:11:00,
2013-07-10 16:52:00,76.0,54.0,-100.00,West,272,7.0,12.0,46,0.00,,,0.00,338.000000,,2013-07-10 23:52:00,
2013-07-10 17:01:00,76.0,54.0,-100.00,West,272,7.0,12.0,46,0.00,,,0.00,338.000000,,2013-07-11 00:01:00,
2013-07-10 17:11:00,76.0,54.0,-100.00,West,272,7.0,12.0,46,0.00,,,0.00,338.000000,,2013-07-11 00:11:00,
2013-07-10 17:42:00,76.0,54.0,-100.00,WNW,288,5.0,9.0,46,0.00,,,0.00,143.000000,,2013-07-11 00:42:00,
2013-07-10 17:52:00,76.0,54.0,-100.00,WNW,288,5.0,9.0,46,0.00,,,0.00,143.000000,,2013-07-11 00:52:00,
2013-07-10 18:01:00,76.0,54.0,-100.00,WNW,288,5.0,9.0,46,0.00,,,0.00,143.000000,,2013-07-11 01:01:00,
2013-07-10 18:11:00,76.0,54.0,-100.00,WNW,288,5.0,9.0,46,0.00,,,0.00,143.000000,,2013-07-11 01:11:00,
2013-07-10 18:43:00,74.0,53.0,-100.00,WNW,301,3.0,10.0,48,0.00,,,0.00,157.000000,,2013-07-11 01:43:00,
2013-07-10 18:52:00,74.0,53.0,-100.00,WNW,301,3.0,10.0,48,0.00,,,0.00,157.000000,,2013-07-11 01:52:00,
2013-07-10 19:02:00,74.0,53.0,-100.00,WNW,301,3.0,10.0,48,0.00,,,0.00,157.000000,,2013-07-11 02:02:00,
2013-07-10 19:11:00,74.0,53.0,-100.00,WNW,301,3.0,10.0,48,0.00,,,0.00,157.000000,,2013-07-11 02:11:00,
2013-07-10 19:43:00,73.0,53.0,-100.00,WSW,256,0.0,7.0,50,0.00,,,0.00,66.000000,,2013-07-11 02:43:00,
2013-07-10 19:53:00,73.0,53.0,-100.00,WSW,256,0.0,7.0,50,0.00,,,0.00,66.000000,,2013-07-11 02:53:00,
2013-07-10 20:01:00,73.0,53.0,-100.00,WSW,256,0.0,7.0,50,0.00,,,0.00,66.000000,,2013-07-11 03:01:00,
2013-07-10 20:11:00,73.0,53.0,-100.00,WSW,256,0.0,7.0,50,0.00,,,0.00,66.000000,,2013-07-11 03:11:00,
2013-07-10 20:42:00,72.0,55.0,-100.00,North,358,0.0,6.0,55,0.00,,,0.00,6.000000,,2013-07-11 03:42:00,
2013-07-10 20:52:00,72.0,55.0,-100.00,North,358,0.0,6.0,55,0.00,,,0.00,6.000000,,2013-07-11 03:52:00,
2013-07-10 21:01:00,72.0,55.0,-100.00,North,358,0.0,6.0,55,0.00,,,0.00,6.000000,,2013-07-11 04:01:00,
2013-07-10 21:11:00,72.0,55.0,-100.00,North,358,0.0,6.0,55,0.00,,,0.00,6.000000,,2013-07-11 04:11:00,
2013-07-10 21:43:00,69.0,54.0,-100.00,West,277,2.0,5.0,58,0.00,,,0.00,0.000000,,2013-07-11 04:43:00,
2013-07-10 21:53:00,69.0,54.0,-100.00,West,277,2.0,5.0,58,0.00,,,0.00,0.000000,,2013-07-11 04:53:00,
2013-07-10 22:01:00,69.0,54.0,-100.00,West,277,2.0,5.0,58,0.00,,,0.00,0.000000,,2013-07-11 05:01:00,
2013-07-10 22:12:00,69.0,54.0,-100.00,West,277,2.0,5.0,58,0.00,,,0.00,0.000000,,2013-07-11 05:12:00,
2013-07-10 22:43:00,66.0,52.0,-100.00,WSW,258,0.0,5.0,60,0.00,,,0.00,0.000000,,2013-07-11 05:43:00,
2013-07-10 22:52:00,66.0,52.0,-100.00,WSW,258,0.0,5.0,60,0.00,,,0.00,0.000000,,2013-07-11 05:52:00,
2013-07-10 23:01:00,66.0,52.0,-100.00,WSW,258,0.0,5.0,60,0.00,,,0.00,0.000000,,2013-07-11 06:01:00,
2013-07-10 23:11:00,66.0,52.0,-100.00,WSW,258,0.0,5.0,60,0.00,,,0.00,0.000000,,2013-07-11 06:11:00,
2013-07-10 23:43:00,67.0,51.0,-100.00,ESE,121,0.0,0.0,57,0.00,,,0.00,0.000000,,2013-07-11 06:43:00,
2013-07-10 23:53:00,67.0,51.0,-100.00,ESE,121,0.0,0.0,57,0.00,,,0.00,0.000000,,2013-07-11 06:53:00,